Home > Weather > Bridgeport > Past weeks

Flag for U.S.A. Weather for the Past 2 Weeks in Bridgeport, Connecticut, U.S.A.

Now
24 °F

Overcast.


Feels Like: 15 °F
Forecast: 22 / 34 °F
Wind: 8 mph from North

Location: Sikorsky Memorial Airport

Current Time: Feb 9, 2016 at 9:46:43 AM

Latest Report: Feb 9, 2016 at 7:52 AM


Visibility: 10 mi

Pressure: 29.72 "Hg

Humidity: 77%

Dew point: 18 °F

Location of BridgeportLocation

Historic Weather in Bridgeport — Graph

°F

Bridgeport Temperature Yesterday

Maximum temperature yesterday: 38 °F (at 1:52 AM)
Minimum temperature yesterday: 26 °F (at 12:02 PM)
Average temperature yesterday: 30 °F

High & Low Weather Summary for the Past Weeks

 TemperatureHumidityPressure
High59 °F (Feb 1, 12:52 PM)97% (Feb 3, 7:52 PM)30.43 "Hg (Feb 3, 7:52 PM)
Low20 °F (Feb 6, 6:52 AM)35% (Feb 2, 1:52 PM)29.42 "Hg (Jan 29, 12:52 PM)
Average38 °F70%30.00 "Hg
* Reported Jan 25 7:52 AM — Feb 9 7:52 AM, Bridgeport, Weather by CustomWeather, © 2016

Note: Actual official high and low records may vary slightly from our data, if they occured in-between our weather recording intervals... More about our weather records

Advertising

Bridgeport Weather History for the Previous 24 Hours

 ConditionsComfort  
Time TempWeatherWind HumidityBarometerVisibility
7:52 AM
Tue, Feb 9
24 °FOvercast.8 mph77%29.72 "Hg10 mi
6:52 AM23 °FPassing clouds.6 mph78%29.73 "Hg10 mi
5:52 AM23 °FOvercast.9 mph78%29.69 "Hg10 mi
4:52 AM24 °FOvercast.14 mph77%29.69 "Hg10 mi
2:52 AM25 °FLight snow. Mostly cloudy.10 mph78%29.74 "Hg8 mi
1:52 AM25 °FPassing clouds.8 mph78%29.76 "Hg10 mi
12:52 AM25 °FLight snow. Overcast.9 mph78%29.76 "Hg4 mi
11:52 PM
Mon, Feb 8
26 °FOvercast.9 mph74%29.78 "Hg9 mi
10:52 PM26 °FLight snow. Overcast.8 mph77%29.79 "Hg10 mi
9:52 PM26 °FLight snow. Mostly cloudy.8 mph77%29.81 "Hg8 mi
8:52 PM27 °FLight snow. Overcast.10 mph78%29.81 "Hg3 mi
7:52 PM27 °FLight snow. Overcast.9 mph75%29.81 "Hg8 mi
6:52 PM28 °FLight snow. Mostly cloudy.7 mph72%29.80 "Hg8 mi
5:52 PM27 °FLight snow. Mostly cloudy.13 mph81%29.76 "Hg5 mi
4:57 PM28 °FLight snow. Overcast.15 mph78%29.75 "Hg2 mi
3:52 PM27 °FLight snow. Ice fog.12 mph85%29.75 "Hg1 mi
2:52 PM27 °FSnow. Ice fog.9 mph85%29.74 "Hg1 mi
1:52 PM26 °FSnow. Ice fog.12 mph84%29.74 "Hg1 mi
1:02 PM26 °FLight snow. Ice fog.15 mph84%29.75 "Hg1 mi
12:52 PM26 °FLight snow. Ice fog.15 mph81%29.75 "Hg1 mi
12:02 PM26 °FLight snow. Ice fog.15 mph81%29.77 "Hg1 mi
10:52 AM27 °FLight snow. Ice fog.15 mph81%29.80 "Hg1 mi
10:02 AM29 °FSnow. Ice fog.16 mph82%29.81 "Hg1 mi
9:52 AM29 °FLight snow. Ice fog.16 mph85%29.80 "Hg1 mi
Weather by CustomWeather, © 2016

See weather overviewHow to use our weather pages